Weather History for FAGG - October, 2010

Change the Weather History Date:

Monday, October 18, 2010

  Actual Average Record
Temperature  
Mean Temperature 61 °F -  
Max Temperature 66 °F 68 °F 96 °F (1998)
Min Temperature 56 °F 52 °F 41 °F (2003)
Degree Days  
Heating Degree Days 4    
Growing Degree Days 11 (Base 50)    
Moisture  
Dew Point 53 °F    
Average Humidity 70    
Maximum Humidity 83    
Minimum Humidity 49    
Precipitation  
Precipitation 0.00 in - - ()
Sea Level Pressure  
Sea Level Pressure 29.87 in    
Wind  
Wind Speed 8 mph ()    
Max Wind Speed 22 mph    
Max Gust Speed -    
Visibility 7.9 miles    
Events      
Averages and records for this station are not official NWS values.
T = Trace of Precipitation, MM = Missing Value Source: Averaged Metar Reports

Daily Weather History Graph

Daily Weather History Graph

Search for Another Location

Airport or City:

Trip Planner

Search our weather history database for the weather conditions in past years. The results will help you decide how hot, cold, wet, or windy it might be!

Date:

Astronomy

Oct. 18, 2010 Rise Set
Actual Time 5:45 AM SAST 6:46 PM SAST
Civil Twilight 5:19 AM SAST 7:12 PM SAST
Nautical Twilight 4:49 AM SAST 7:42 PM SAST
Astronomical Twilight 4:18 AM SAST 8:14 PM SAST
Moon 2:48 PM SAST (10/18) 3:05 AM SAST (10/18)
Length of Visible Light 13h 52m
Length of Day
13h 00m
Waxing Gibbous, 81% of the Moon is Illuminated
Oct 18
Waxing Gibbous
Oct 23
Full
Oct 30
Last Quarter
Nov 6
New
Nov 13
First Quarter

Hourly Weather History & Observations

Time (SAST) Temp. Dew Point Humidity Pressure Visibility Wind Dir Wind Speed Gust Speed Precip Events Conditions
12:00 AM 57.2 °F 50.0 °F 77% 29.83 in - WNW 8.1 mph - N/A   Clear
1:00 AM 57.2 °F 48.2 °F 72% 29.83 in - West 5.8 mph - N/A   Clear
2:00 AM 60 °F 46 °F 49% 29.83 in 44 mi NW 5.8 mph - -  
2:00 AM 60.8 °F 44.6 °F 55% 29.83 in - NW 5.8 mph - N/A   Clear
3:00 AM 60.8 °F 44.6 °F 55% 29.80 in - NW 4.6 mph - N/A   Clear
4:00 AM 62.6 °F 44.6 °F 52% 29.80 in - NW 4.6 mph - N/A   Clear
5:00 AM 59 °F 46 °F 52% 29.81 in 12 mi NW 3.5 mph - -  
5:00 AM 59.0 °F 44.6 °F 59% 29.80 in - NW 3.5 mph - N/A   Clear
6:00 AM 57.2 °F 46.4 °F 67% 29.80 in - WNW 5.8 mph - N/A   Clear
7:00 AM 59.0 °F 48.2 °F 67% 29.83 in - WNW 4.6 mph - N/A   Clear
8:00 AM 64 °F 51 °F 52% 29.87 in 12 mi NW 5.8 mph - -   Clear
8:00 AM 64.4 °F 50.0 °F 59% 29.86 in - NW 5.8 mph - N/A   Clear
9:00 AM 64.4 °F 57.2 °F 77% 29.86 in 6.2 mi SSW 9.2 mph - N/A   Partly Cloudy
10:00 AM 66.2 °F 57.2 °F 73% 29.86 in 6.2 mi SSW 10.4 mph - N/A   Partly Cloudy
11:00 AM 66 °F 59 °F 70% 29.88 in 12 mi SSW 12.7 mph - -   Scattered Clouds
11:00 AM 66.2 °F 59.0 °F 78% 29.86 in 6.2 mi SSW 11.5 mph - N/A   Partly Cloudy
12:00 PM 64.4 °F 59.0 °F 83% 29.89 in 6.2 mi SSW 15.0 mph - N/A   Partly Cloudy
1:00 PM 66.2 °F 59.0 °F 78% 29.86 in 6.2 mi SSW 15.0 mph - N/A   Partly Cloudy
2:00 PM 65 °F 57 °F 68% 29.86 in 12 mi SSW 15.0 mph - -   Partly Cloudy
2:00 PM 64.4 °F 57.2 °F 77% 29.86 in 6.2 mi SSW 16.1 mph - N/A   Scattered Clouds
3:00 PM 64.4 °F 57.2 °F 77% 29.86 in 6.2 mi SSW 21.9 mph - N/A   Scattered Clouds
4:00 PM 64.4 °F 55.4 °F 73% 29.86 in 6.2 mi SW 20.7 mph - N/A   Mostly Cloudy
5:00 PM 62 °F 55 °F 71% 29.88 in 12 mi SSW 19.6 mph - -   Mostly Cloudy
5:00 PM 62.6 °F 55.4 °F 77% 29.89 in 6.2 mi SW 18.4 mph - N/A   Mostly Cloudy
6:00 PM 60.8 °F 55.4 °F 82% 29.89 in 6.2 mi SW 11.5 mph - N/A   Mostly Cloudy
7:00 PM 60.8 °F 55.4 °F 82% 29.92 in 6.2 mi SW 8.1 mph - N/A   Mostly Cloudy
8:00 PM 60 °F 55 °F 80% 29.96 in 12 mi SW 6.9 mph - -   Mostly Cloudy
8:00 PM 60.8 °F 55.4 °F 82% 29.95 in 6.2 mi SW 6.9 mph - N/A   Mostly Cloudy
9:00 PM 60.8 °F 53.6 °F 77% 29.98 in 6.2 mi West 8.1 mph - N/A   Overcast
10:00 PM 60.8 °F 53.6 °F 77% 29.95 in 6.2 mi WNW 8.1 mph - N/A   Mostly Cloudy
11:00 PM 59.0 °F 53.6 °F 82% 29.95 in 6.2 mi WNW 3.5 mph - N/A   Mostly Cloudy